User: anonymous   Login
Location: Franzen
(48.6167°N, 15.3833°E)
Time: 01:25:00
(UTC+00:00)
Language:

CZ-4C R/B - Orbit

View from above orbital plane
View from above orbital plane
View from above satellite
View from above satellite

Ground track
Ground track

The orbit data is extracted from the following two-line orbital elements,

1 36416U 10009D   21174.54825205 -.00000111  00000-0  13606-5 0  9991
2 36416  63.4203 282.9076 0531442 355.6202   4.0277 13.69594704565145
Epoch (UTC): 23 June 2021 13:09:28
Eccentricity: 0.0531442
inclination: 63.4203°
perigee height: 609 km
apogee height: 1393 km
right ascension of ascending node: 282.9076°
argument of perigee: 355.6202°
revolutions per day: 13.69594704
mean anomaly at epoch: 4.0277°
orbit number at epoch: 56514

The dashed part of the orbit path shows where the satellite is in the earth's shadow,  

DLR